Location: Bukit Lungun
(2.6833°N, 113.9667°E)
Time: 12:14:18
(UTC+00:00)

ATLAS CENTAUR R/B - Pass Details

Date: 02 March 2021
Orbit: 475 x 670 km, 64.7° (Epoch: 30 March)

Event Time Altitude Azimuth Distance (km) Brightness Sun altitude
Rises 22:01:31 0° 333° (NNW) 2,826 4.6 -8.9°
Reaches altitude 10° 22:03:43 10° 330° (NNW) 1,957 3.8 -8.4°
Maximum altitude 22:08:08 66° 248° (WSW) 690 1.6 -7.3°
Drops below altitude 10° 22:12:47 10° 166° (SSE) 2,060 4.5 -6.1°
Sets 22:15:09 0° 163° (SSE) 2,989 5.4 -5.5°
